����������;��������(kVARh)
2019-10-14 00:00;20,65
2019-10-14 00:15;22,2
2019-10-14 00:30;23,4
2019-10-14 00:45;20,8
2019-10-14 01:00;19
2019-10-14 01:15;18,3
2019-10-14 01:30;19,65
2019-10-14 01:45;19,1
2019-10-14 02:00;19,55
2019-10-14 02:15;19,65
2019-10-14 02:30;14,05
2019-10-14 02:45;10,5
2019-10-14 03:00;9,75
2019-10-14 03:15;9,6
2019-10-14 03:30;11,1
2019-10-14 03:45;11,3
2019-10-14 04:00;11,15
2019-10-14 04:15;10,3
2019-10-14 04:30;10,95
2019-10-14 04:45;12,4
2019-10-14 05:00;12,3
2019-10-14 05:15;12,7
2019-10-14 05:30;11,65
2019-10-14 05:45;10,55
2019-10-14 06:00;11,15
2019-10-14 06:15;10,25
2019-10-14 06:30;12,85
2019-10-14 06:45;15,55
2019-10-14 07:00;15,5
2019-10-14 07:15;15,4
2019-10-14 07:30;16,65
2019-10-14 07:45;42,2
2019-10-14 08:00;43,3
2019-10-14 08:15;32,35
2019-10-14 08:30;32,65
2019-10-14 08:45;34
2019-10-14 09:00;39,3
2019-10-14 09:15;51,65
2019-10-14 09:30;56,2
2019-10-14 09:45;54,65
2019-10-14 10:00;51,85
2019-10-14 10:15;48,9
2019-10-14 10:30;53,85
2019-10-14 10:45;50,85
2019-10-14 11:00;52,4
2019-10-14 11:15;55,35
2019-10-14 11:30;48,1
2019-10-14 11:45;54,6
2019-10-14 12:00;53,45
2019-10-14 12:15;53,95
2019-10-14 12:30;53,9
2019-10-14 12:45;52,75
2019-10-14 13:00;55,25
2019-10-14 13:15;56,3
2019-10-14 13:30;54
2019-10-14 13:45;53,6
2019-10-14 14:00;53,3
2019-10-14 14:15;56,6
2019-10-14 14:30;52,5
2019-10-14 14:45;52,6
2019-10-14 15:00;45,85
2019-10-14 15:15;52,35
2019-10-14 15:30;54,15
2019-10-14 15:45;46,85
2019-10-14 16:00;53,2
2019-10-14 16:15;51,95
2019-10-14 16:30;47,1
2019-10-14 16:45;47,6
2019-10-14 17:00;41,85
2019-10-14 17:15;49,1
2019-10-14 17:30;47,5
2019-10-14 17:45;41,9
2019-10-14 18:00;43,1
2019-10-14 18:15;41,4
2019-10-14 18:30;49,85
2019-10-14 18:45;46,85
2019-10-14 19:00;46,9
2019-10-14 19:15;32,9
2019-10-14 19:30;34,9
2019-10-14 19:45;37,9
2019-10-14 20:00;35,15
2019-10-14 20:15;32,55
2019-10-14 20:30;33,65
2019-10-14 20:45;33,7
2019-10-14 21:00;32,75
2019-10-14 21:15;32,4
2019-10-14 21:30;34,5
2019-10-14 21:45;32,75
2019-10-14 22:00;30,6
2019-10-14 22:15;31,55
2019-10-14 22:30;24,8
2019-10-14 22:45;23,9
2019-10-14 23:00;27,75
2019-10-14 23:15;21,15
2019-10-14 23:30;21,5
2019-10-14 23:45;21,05
2019-10-15 00:00;18,75
2019-10-15 00:15;19,9
2019-10-15 00:30;22,6
2019-10-15 00:45;23
2019-10-15 01:00;18,55
2019-10-15 01:15;16,75
2019-10-15 01:30;15,65
2019-10-15 01:45;14,95
2019-10-15 02:00;15,1
2019-10-15 02:15;15
2019-10-15 02:30;14,9
2019-10-15 02:45;15,4
2019-10-15 03:00;15
2019-10-15 03:15;15,8
2019-10-15 03:30;15,45
2019-10-15 03:45;16,35
2019-10-15 04:00;17,2
2019-10-15 04:15;16,35
2019-10-15 04:30;17,25
2019-10-15 04:45;17,5
2019-10-15 05:00;18,7
2019-10-15 05:15;17,55
2019-10-15 05:30;17,4
2019-10-15 05:45;18
2019-10-15 06:00;17,95
2019-10-15 06:15;16,9
2019-10-15 06:30;15,55
2019-10-15 06:45;14,5
2019-10-15 07:00;14,7
2019-10-15 07:15;14,7
2019-10-15 07:30;17,15
2019-10-15 07:45;35,05
2019-10-15 08:00;33,25
2019-10-15 08:15;30,7
2019-10-15 08:30;36,65
2019-10-15 08:45;37,9
2019-10-15 09:00;41,9
2019-10-15 09:15;45,35
2019-10-15 09:30;49
2019-10-15 09:45;41,25
2019-10-15 10:00;56,55
2019-10-15 10:15;60,2
2019-10-15 10:30;65,55
2019-10-15 10:45;53,2
2019-10-15 11:00;59,95
2019-10-15 11:15;58,85
2019-10-15 11:30;55,7
2019-10-15 11:45;63,45
2019-10-15 12:00;60,4
2019-10-15 12:15;57,4
2019-10-15 12:30;58,15
2019-10-15 12:45;55,85
2019-10-15 13:00;51
2019-10-15 13:15;61,4
2019-10-15 13:30;58,6
2019-10-15 13:45;52,55
2019-10-15 14:00;55,35
2019-10-15 14:15;56,65
2019-10-15 14:30;63,15
2019-10-15 14:45;56,2
2019-10-15 15:00;54,35
2019-10-15 15:15;49,5
2019-10-15 15:30;55,7
2019-10-15 15:45;52,45
2019-10-15 16:00;52,5
2019-10-15 16:15;51,7
2019-10-15 16:30;47,65
2019-10-15 16:45;50,5
2019-10-15 17:00;44,9
2019-10-15 17:15;41,4
2019-10-15 17:30;39,8
2019-10-15 17:45;32,65
2019-10-15 18:00;44,45
2019-10-15 18:15;48,15
2019-10-15 18:30;36,9
2019-10-15 18:45;37,15
2019-10-15 19:00;37,9
2019-10-15 19:15;30,05
2019-10-15 19:30;34,25
2019-10-15 19:45;34,95
2019-10-15 20:00;34,8
2019-10-15 20:15;30,65
2019-10-15 20:30;30,2
2019-10-15 20:45;30
2019-10-15 21:00;32,45
2019-10-15 21:15;33,95
2019-10-15 21:30;34,95
2019-10-15 21:45;33,3
2019-10-15 22:00;32,7
2019-10-15 22:15;32,9
2019-10-15 22:30;29,9
2019-10-15 22:45;25,4
2019-10-15 23:00;27,95
2019-10-15 23:15;21,65
2019-10-15 23:30;19,25
2019-10-15 23:45;22,05
2019-10-16 00:00;20,5
2019-10-16 00:15;21,15
2019-10-16 00:30;21,9
2019-10-16 00:45;20,75
2019-10-16 01:00;13,05
2019-10-16 01:15;12,35
2019-10-16 01:30;14,05
2019-10-16 01:45;14,45
2019-10-16 02:00;14,75
2019-10-16 02:15;15,2
2019-10-16 02:30;15,8
2019-10-16 02:45;17,4
2019-10-16 03:00;17,5
2019-10-16 03:15;17,75
2019-10-16 03:30;17,4
2019-10-16 03:45;17,55
2019-10-16 04:00;18,5
2019-10-16 04:15;18,55
2019-10-16 04:30;19,1
2019-10-16 04:45;19,1
2019-10-16 05:00;19,3
2019-10-16 05:15;18,9
2019-10-16 05:30;19,35
2019-10-16 05:45;18,8
2019-10-16 06:00;19,05
2019-10-16 06:15;17,5
2019-10-16 06:30;12,3
2019-10-16 06:45;12,75
2019-10-16 07:00;16,8
2019-10-16 07:15;16
2019-10-16 07:30;17,15
2019-10-16 07:45;36,9
2019-10-16 08:00;27,85
2019-10-16 08:15;28,95
2019-10-16 08:30;28,8
2019-10-16 08:45;34,45
2019-10-16 09:00;39,55
2019-10-16 09:15;42,1
2019-10-16 09:30;40,1
2019-10-16 09:45;45,2
2019-10-16 10:00;47,15
2019-10-16 10:15;50,95
2019-10-16 10:30;58
2019-10-16 10:45;59,45
2019-10-16 11:00;56,45
2019-10-16 11:15;59,75
2019-10-16 11:30;64,75
2019-10-16 11:45;65,45
2019-10-16 12:00;57,05
2019-10-16 12:15;60,65
2019-10-16 12:30;52,8
2019-10-16 12:45;56,45
2019-10-16 13:00;60,75
2019-10-16 13:15;59,95
2019-10-16 13:30;60,4
2019-10-16 13:45;55,4
2019-10-16 14:00;60,05
2019-10-16 14:15;57,85
2019-10-16 14:30;58,7
2019-10-16 14:45;57,35
2019-10-16 15:00;64,25
2019-10-16 15:15;57,3
2019-10-16 15:30;51,25
2019-10-16 15:45;52,75
2019-10-16 16:00;52,1
2019-10-16 16:15;52,45
2019-10-16 16:30;42,65
2019-10-16 16:45;49,3
2019-10-16 17:00;45,75
2019-10-16 17:15;41,25
2019-10-16 17:30;44,65
2019-10-16 17:45;42,5
2019-10-16 18:00;48,85
2019-10-16 18:15;39,05
2019-10-16 18:30;47,8
2019-10-16 18:45;42,1
2019-10-16 19:00;44,2
2019-10-16 19:15;32,65
2019-10-16 19:30;36,6
2019-10-16 19:45;40,25
2019-10-16 20:00;37,1
2019-10-16 20:15;33,7
2019-10-16 20:30;27,8
2019-10-16 20:45;26,2
2019-10-16 21:00;28,2
2019-10-16 21:15;29,35
2019-10-16 21:30;29,05
2019-10-16 21:45;24,35
2019-10-16 22:00;24,95
2019-10-16 22:15;23,95
2019-10-16 22:30;24,8
2019-10-16 22:45;23,35
2019-10-16 23:00;25,65
2019-10-16 23:15;25,2
2019-10-16 23:30;23,45
2019-10-16 23:45;20,85
2019-10-17 00:00;18,55
2019-10-17 00:15;19,8
2019-10-17 00:30;16,5
2019-10-17 00:45;12,9
2019-10-17 01:00;15,45
2019-10-17 01:15;15,55
2019-10-17 01:30;14,75
2019-10-17 01:45;16
2019-10-17 02:00;17,3
2019-10-17 02:15;14,1
2019-10-17 02:30;14,8
2019-10-17 02:45;15,9
2019-10-17 03:00;15
2019-10-17 03:15;15,65
2019-10-17 03:30;16,65
2019-10-17 03:45;15,1
2019-10-17 04:00;15,6
2019-10-17 04:15;16,25
2019-10-17 04:30;17,2
2019-10-17 04:45;17,1
2019-10-17 05:00;17,85
2019-10-17 05:15;18,45
2019-10-17 05:30;17,65
2019-10-17 05:45;16,5
2019-10-17 06:00;17,3
2019-10-17 06:15;15,55
2019-10-17 06:30;14
2019-10-17 06:45;16,95
2019-10-17 07:00;25,5
2019-10-17 07:15;26
2019-10-17 07:30;25,15
2019-10-17 07:45;42,45
2019-10-17 08:00;28,2
2019-10-17 08:15;23,85
2019-10-17 08:30;35,45
2019-10-17 08:45;39,45
2019-10-17 09:00;41,85
2019-10-17 09:15;43,6
2019-10-17 09:30;53,45
2019-10-17 09:45;60,05
2019-10-17 10:00;55,35
2019-10-17 10:15;55,35
2019-10-17 10:30;56,7
2019-10-17 10:45;54,95
2019-10-17 11:00;55,5
2019-10-17 11:15;50,9
2019-10-17 11:30;51,9
2019-10-17 11:45;53,2
2019-10-17 12:00;58,45
2019-10-17 12:15;50,75
2019-10-17 12:30;51,9
2019-10-17 12:45;51,75
2019-10-17 13:00;57,25
2019-10-17 13:15;53,9
2019-10-17 13:30;54,95
2019-10-17 13:45;54,1
2019-10-17 14:00;52,15
2019-10-17 14:15;52,25
2019-10-17 14:30;51,85
2019-10-17 14:45;54,25
2019-10-17 15:00;55,95
2019-10-17 15:15;55,95
2019-10-17 15:30;55,45
2019-10-17 15:45;54,65
2019-10-17 16:00;57,05
2019-10-17 16:15;58,4
2019-10-17 16:30;48,5
2019-10-17 16:45;54,8
2019-10-17 17:00;44,45
2019-10-17 17:15;45,95
2019-10-17 17:30;45,75
2019-10-17 17:45;45,85
2019-10-17 18:00;39,25
2019-10-17 18:15;49,1
2019-10-17 18:30;46,5
2019-10-17 18:45;46
2019-10-17 19:00;40,9
2019-10-17 19:15;33,5
2019-10-17 19:30;38,2
2019-10-17 19:45;40,25
2019-10-17 20:00;40,3
2019-10-17 20:15;37,5
2019-10-17 20:30;39,05
2019-10-17 20:45;37,4
2019-10-17 21:00;35,2
2019-10-17 21:15;26,95
2019-10-17 21:30;22,85
2019-10-17 21:45;20,6
2019-10-17 22:00;20
2019-10-17 22:15;21,6
2019-10-17 22:30;20,85
2019-10-17 22:45;20,25
2019-10-17 23:00;22,3
2019-10-17 23:15;22,05
2019-10-17 23:30;23,1
2019-10-17 23:45;22,1
2019-10-18 00:00;18,75
2019-10-18 00:15;18,15
2019-10-18 00:30;17,2
2019-10-18 00:45;16,2
2019-10-18 01:00;16,85
2019-10-18 01:15;15
2019-10-18 01:30;14,7
2019-10-18 01:45;14,5
2019-10-18 02:00;14,3
2019-10-18 02:15;14,55
2019-10-18 02:30;16,2
2019-10-18 02:45;14,6
2019-10-18 03:00;15,45
2019-10-18 03:15;16,8
2019-10-18 03:30;15,7
2019-10-18 03:45;16,55
2019-10-18 04:00;16,5
2019-10-18 04:15;16,75
2019-10-18 04:30;16,8
2019-10-18 04:45;17,1
2019-10-18 05:00;17,6
2019-10-18 05:15;18,1
2019-10-18 05:30;16,2
2019-10-18 05:45;17,2
2019-10-18 06:00;17,6
2019-10-18 06:15;15,85
2019-10-18 06:30;16,05
2019-10-18 06:45;15,8
2019-10-18 07:00;16,05
2019-10-18 07:15;18,35
2019-10-18 07:30;21,4
2019-10-18 07:45;43,45
2019-10-18 08:00;40,75
2019-10-18 08:15;32,65
2019-10-18 08:30;39,45
2019-10-18 08:45;36,15
2019-10-18 09:00;42,75
2019-10-18 09:15;46,8
2019-10-18 09:30;51
2019-10-18 09:45;46,3
2019-10-18 10:00;51,1
2019-10-18 10:15;49,75
2019-10-18 10:30;51,35
2019-10-18 10:45;56,5
2019-10-18 11:00;50,95
2019-10-18 11:15;58,65
2019-10-18 11:30;54,7
2019-10-18 11:45;57,65
2019-10-18 12:00;56,85
2019-10-18 12:15;59,25
2019-10-18 12:30;59,05
2019-10-18 12:45;58,05
2019-10-18 13:00;59,85
2019-10-18 13:15;57,85
2019-10-18 13:30;56,3
2019-10-18 13:45;57,3
2019-10-18 14:00;55,8
2019-10-18 14:15;53,6
2019-10-18 14:30;56,75
2019-10-18 14:45;59,15
2019-10-18 15:00;58
2019-10-18 15:15;53,8
2019-10-18 15:30;53,5
2019-10-18 15:45;50,45
2019-10-18 16:00;47,1
2019-10-18 16:15;47,4
2019-10-18 16:30;46,8
2019-10-18 16:45;44,3
2019-10-18 17:00;44,4
2019-10-18 17:15;42,85
2019-10-18 17:30;39,75
2019-10-18 17:45;40,6
2019-10-18 18:00;41,45
2019-10-18 18:15;39,7
2019-10-18 18:30;37,1
2019-10-18 18:45;36,55
2019-10-18 19:00;35,3
2019-10-18 19:15;30,25
2019-10-18 19:30;30,15
2019-10-18 19:45;29,3
2019-10-18 20:00;29,5
2019-10-18 20:15;26,95
2019-10-18 20:30;26,55
2019-10-18 20:45;27,8
2019-10-18 21:00;29,15
2019-10-18 21:15;28,35
2019-10-18 21:30;30,9
2019-10-18 21:45;24,25
2019-10-18 22:00;22,55
2019-10-18 22:15;24,55
2019-10-18 22:30;26,05
2019-10-18 22:45;24,7
2019-10-18 23:00;27,4
2019-10-18 23:15;24,85
2019-10-18 23:30;28,25
2019-10-18 23:45;28,85
2019-10-19 00:00;25,15
2019-10-19 00:15;25,8
2019-10-19 00:30;20,35
2019-10-19 00:45;17,95
2019-10-19 01:00;18,6
2019-10-19 01:15;14,75
2019-10-19 01:30;14,65
2019-10-19 01:45;14,8
2019-10-19 02:00;14,1
2019-10-19 02:15;15,75
2019-10-19 02:30;14,7
2019-10-19 02:45;12
2019-10-19 03:00;11,55
2019-10-19 03:15;11,6
2019-10-19 03:30;11,2
2019-10-19 03:45;11,75
2019-10-19 04:00;13,85
2019-10-19 04:15;13,15
2019-10-19 04:30;13,6
2019-10-19 04:45;14,25
2019-10-19 05:00;15,35
2019-10-19 05:15;13,8
2019-10-19 05:30;14
2019-10-19 05:45;13,85
2019-10-19 06:00;14,25
2019-10-19 06:15;12,5
2019-10-19 06:30;11,3
2019-10-19 06:45;11,7
2019-10-19 07:00;16,3
2019-10-19 07:15;14,65
2019-10-19 07:30;15,85
2019-10-19 07:45;13,8
2019-10-19 08:00;13,6
2019-10-19 08:15;14,35
2019-10-19 08:30;13,1
2019-10-19 08:45;11,7
2019-10-19 09:00;11,6
2019-10-19 09:15;11,5
2019-10-19 09:30;10,9
2019-10-19 09:45;9,8
2019-10-19 10:00;10,25
2019-10-19 10:15;15,2
2019-10-19 10:30;17,1
2019-10-19 10:45;15,75
2019-10-19 11:00;15,1
2019-10-19 11:15;15,2
2019-10-19 11:30;14,75
2019-10-19 11:45;13,65
2019-10-19 12:00;13,65
2019-10-19 12:15;15,2
2019-10-19 12:30;15,15
2019-10-19 12:45;14,05
2019-10-19 13:00;14,95
2019-10-19 13:15;14,35
2019-10-19 13:30;13,5
2019-10-19 13:45;15,95
2019-10-19 14:00;15,2
2019-10-19 14:15;15,75
2019-10-19 14:30;17,3
2019-10-19 14:45;17,1
2019-10-19 15:00;16,9
2019-10-19 15:15;18,25
2019-10-19 15:30;18,75
2019-10-19 15:45;18,1
2019-10-19 16:00;19,2
2019-10-19 16:15;19,7
2019-10-19 16:30;20,8
2019-10-19 16:45;19,25
2019-10-19 17:00;19,25
2019-10-19 17:15;21,7
2019-10-19 17:30;20,8
2019-10-19 17:45;20,45
2019-10-19 18:00;20,55
2019-10-19 18:15;20,85
2019-10-19 18:30;20,15
2019-10-19 18:45;21,05
2019-10-19 19:00;21,4
2019-10-19 19:15;19,75
2019-10-19 19:30;20,5
2019-10-19 19:45;20,85
2019-10-19 20:00;22,8
2019-10-19 20:15;22,2
2019-10-19 20:30;23,45
2019-10-19 20:45;24,85
2019-10-19 21:00;25
2019-10-19 21:15;23,45
2019-10-19 21:30;25,45
2019-10-19 21:45;25,35
2019-10-19 22:00;17,45
2019-10-19 22:15;17,2
2019-10-19 22:30;14,45
2019-10-19 22:45;15,35
2019-10-19 23:00;17,8
2019-10-19 23:15;16,9
2019-10-19 23:30;17,8
2019-10-19 23:45;20,55
2019-10-20 00:00;17,05
2019-10-20 00:15;19
2019-10-20 00:30;19,5
2019-10-20 00:45;19,4
2019-10-20 01:00;15,1
2019-10-20 01:15;8,2
2019-10-20 01:30;9,4
2019-10-20 01:45;8,9
2019-10-20 02:00;8,55
2019-10-20 02:15;8,85
2019-10-20 02:30;9
2019-10-20 02:45;10
2019-10-20 03:00;9,8
2019-10-20 03:15;9,6
2019-10-20 03:30;9,9
2019-10-20 03:45;11,05
2019-10-20 04:00;11,15
2019-10-20 04:15;12,05
2019-10-20 04:30;12,75
2019-10-20 04:45;13,25
2019-10-20 05:00;12,4
2019-10-20 05:15;12,6
2019-10-20 05:30;12,7
2019-10-20 05:45;12,65
2019-10-20 06:00;11,95
2019-10-20 06:15;12,15
2019-10-20 06:30;12,25
2019-10-20 06:45;12,75
2019-10-20 07:00;18,75
2019-10-20 07:15;16,95
2019-10-20 07:30;17,05
2019-10-20 07:45;16,25
2019-10-20 08:00;16,85
2019-10-20 08:15;16,8
2019-10-20 08:30;16,35
2019-10-20 08:45;15,6
2019-10-20 09:00;17,3
2019-10-20 09:15;17,75
2019-10-20 09:30;17,25
2019-10-20 09:45;21,7
2019-10-20 10:00;24,3
2019-10-20 10:15;22,4
2019-10-20 10:30;22,6
2019-10-20 10:45;22,3
2019-10-20 11:00;22,1
2019-10-20 11:15;21,1
2019-10-20 11:30;20,9
2019-10-20 11:45;19,75
2019-10-20 12:00;19,85
2019-10-20 12:15;18,35
2019-10-20 12:30;18,15
2019-10-20 12:45;18,4
2019-10-20 13:00;17,9
2019-10-20 13:15;18,5
2019-10-20 13:30;18,25
2019-10-20 13:45;19,05
2019-10-20 14:00;18,5
2019-10-20 14:15;19,9
2019-10-20 14:30;19,2
2019-10-20 14:45;19,8
2019-10-20 15:00;20,55
2019-10-20 15:15;20,1
2019-10-20 15:30;20,15
2019-10-20 15:45;21,6
2019-10-20 16:00;22,95
2019-10-20 16:15;23,25
2019-10-20 16:30;24,3
2019-10-20 16:45;22,7
2019-10-20 17:00;24,5
2019-10-20 17:15;24,6
2019-10-20 17:30;25,25
2019-10-20 17:45;27,3
2019-10-20 18:00;27,6
2019-10-20 18:15;27,25
2019-10-20 18:30;27,7
2019-10-20 18:45;25,75
2019-10-20 19:00;25,35
2019-10-20 19:15;21,75
2019-10-20 19:30;20,5
2019-10-20 19:45;20,65
2019-10-20 20:00;20,4
2019-10-20 20:15;20,5
2019-10-20 20:30;22,3
2019-10-20 20:45;22,4
2019-10-20 21:00;21,6
2019-10-20 21:15;20,8
2019-10-20 21:30;20,9
2019-10-20 21:45;20,1
2019-10-20 22:00;18,3
2019-10-20 22:15;17,65
2019-10-20 22:30;18,1
2019-10-20 22:45;19,5
2019-10-20 23:00;21,65
2019-10-20 23:15;11,7
2019-10-20 23:30;13,5
2019-10-20 23:45;13,8

